Other Public Products
Issued by NWS Grand Forks, ND

Home | Current Version | Previous Version | Text Only | Print | Product List | Glossary Off
Versions: 1 2 3 4 5 6 7 8 9 10 11 12 13 14 15 16 17 18 19 20 21 22 23 24 25 26 27 28 29 30 31 32 33 34 35 36 37 38 39 40 41 42 43 44 45 46 47 48 49 50

000
FPUS83 KFGF 260410
OPUFGF
PRAIRIE TO PINES WEATHER ROUNDUP
NATIONAL WEATHER SERVICE EASTERN NORTH DAKOTA/GRAND FORKS ND
1000 PM CST TUE NOV 25 2014

 **SATELLITE DATA USED TO AUGMENT SKY COVER AT AUTOMATED STATIONS**
 *****  WEATHER ACROSS EASTERN NORTH DAKOTA  *****

CITY           SKY/WX    TMP DP  RH WIND       PRES   REMARKS
GRAND FORKS    FLURRIES  14  10  84 N20       30.09R WCI  -3
GRAND FORKS AF LGT SNOW  12   9  85 N15       30.10R FOG     WCI  -4
GRAND CITY NWS   N/A     14 N/A N/A N21         N/A  WCI  -4
BUXTON         NOT AVBL
DEVILS LAKE    MOCLDY    10   0  61 NE12      30.06R WCI  -4
FARGO          LGT SNOW  24  19  81 NE9       30.00R WCI  14
WAHPETON ARPT  CLOUDY    23  16  74 E10       29.95R WCI  12
$$

 *****  WEATHER ACROSS CENTRAL AND WESTERN NORTH DAKOTA  *****

CITY           SKY/WX    TMP DP  RH WIND       PRES   REMARKS
JAMESTOWN      LGT SNOW  19  15  84 NE22      29.95R VSB 3/4 WCI   2
BISMARCK       CLOUDY    20  15  81 NE21G28   29.98R WCI   4
MINOT          CLOUDY     9   4  80 N14       30.11R HAZE    WCI  -7
MINOT AFB      FLURRIES   9   5  86 N13       30.13R WCI  -7
GARRISON         N/A     15  12  88 NE15G24   30.05R WCI   0
WILLISTON      CLOUDY    18  13  80 N10       30.14R WCI   6
DICKINSON      CLOUDY    21  17  84 N17       30.01R WCI   7
HETTINGER      CLOUDY    25  21  85 N28G38    29.97R WCI   9
$$

 *****  OTHER OBSERVATIONS NORTHEAST NORTH DAKOTA  *****

CITY           SKY/WX    TMP DP  RH WIND       PRES   REMARKS
WALHALLA         N/A      7   5  92 N13       30.17R WCI  -9
LANGDON        MOCLDY     7   1  78 NE16      30.09R WCI -11
CAVALIER       MOCLDY     9   3  78 N14G21    30.16R WCI  -8
GRAFTON        MIX PCPN   9   5  85 N21       30.14R WCI -11
CANDO          CLOUDY     9   5  85 NE13G25   30.11R WCI  -7
FORT TOTTEN      N/A     11   7  83 NE8       29.95S WCI  -1
ROLLA          CLOUDY     5   1  85 N13       30.10R WCI -12
RUGBY          CLOUDY     7   3  85 NE15      30.10R WCI -11
 ***** THE ABOVE OBSERVATIONS ARE NON NWS ARE NOT QUALITY
        CONTROLLED AND MAY MIS-REPORT RAIN FOR SNOW...
$$

 *****  OTHER OBSERVATIONS SOUTHEAST NORTH DAKOTA *****

CITY           SKY/WX    TMP DP  RH WIND       PRES   REMARKS
COOPERSTOWN    NOT AVBL
VALLEY CITY    LGT SNOW  19  19 100 NE17G24   29.97R WCI   4
OAKES          LGT SNOW  25  25 100 NE18      29.88R VSB 3/4 WCI  11
GWINNER        CLOUDY    27  23  86 NE14      29.92R VSB 1   WCI  15
BUFFALO        NOT AVBL
WYNDMERE         N/A     23  19  86 NE12        N/A  WCI  12
 ***** THE ABOVE OBSERVATIONS ARE NON NWS ARE NOT QUALITY
       CONTROLLED AND MAY MIS-REPORT RAIN FOR SNOW...
$$

  *****  WEATHER ACROSS NORTHERN MINNESOTA  *****

CITY           SKY/WX    TMP DP  RH WIND       PRES   REMARKS
FLAG ISLAND    LGT SNOW  12   9  85 N8        30.07R WCI   1
WARROAD        LGT SNOW  12   9  85 N6        30.08R WCI   3
ROSEAU         LGT SNOW  14   9  79 N7        30.09R WCI   4
HALLOCK        LGT SNOW  10   7  85 N14       30.13R WCI  -5
THF RVR FALLS  CLOUDY    18  14  86 N14       30.05R WCI   4
HALSTAD          N/A     20  18  88 N14         N/A  WCI   7
FOSSTON        LGT SNOW  18  12  79 E5        30.01R WCI  11
BAUDETTE       FLURRIES  14  10  84 N7        30.05R WCI   4
WASKISH        CLOUDY    18  14  86 CALM      30.03R
CROOKSTON      LGT SNOW  18  14  86 N15       30.07R WCI   3
$$
  *****  WEATHER ACROSS CENTRAL AND WEST MINNESOTA  *****

CITY           SKY/WX    TMP DP  RH WIND       PRES   REMARKS
BEMIDJI        CLOUDY    19  14  79 CALM      30.00R
PARK RAPIDS    CLOUDY    19   8  62 E5        29.98R WCI  12
WADENA         CLOUDY    18   9  68 NE6       29.97R WCI   9
DETROIT LAKES  CLOUDY    21  14  73 E3        29.98R
MOORHEAD       LGT RAIN  23  23 100 NE8       30.00R WCI  14
FERGUS FALLS   CLOUDY    21  12  68 E9        29.98R WCI  11
ELBOW LAKE       N/A     22  15  74 E9        29.92S WCI  12
MORRIS MN      CLOUDY    25  16  68 SE13      29.89S WCI  13
STAPLES        CLOUDY    16   9  73 CALM      29.99R
WHEATON        CLOUDY    23  18  80 E9        29.92S WCI  13
$$
  *****  WEATHER ELSEWHERE ACROSS MINNESOTA  *****

CITY           SKY/WX    TMP DP  RH WIND       PRES   REMARKS
DULUTH         CLOUDY    18  10  71 SW3       30.02R
INTRNTL FALLS  CLOUDY    16   9  74 N3        30.03R
ELY            PTCLDY     3   1  92 CALM      30.01R
CLOQUET        CLOUDY    18  10  73 CALM      30.03R
BRAINERD       CLOUDY    17   7  64 CALM      30.01R
HIBBING        CLOUDY    19   6  57 S3        30.02R
ALEXANDRIA     CLOUDY    20  13  74 E8        29.94R WCI  10
SAINT CLOUD    CLOUDY    23  13  65 SE8       29.99S WCI  14
MINNEAPOLIS    CLOUDY    24  16  71 SE6       30.04S WCI  17
$$

  *****  WEATHER ACROSS SOUTH DAKOTA  *****

CITY           SKY/WX    TMP DP  RH WIND       PRES   REMARKS
SIOUX FALLS    LGT SNOW  32  29  88 SE12      29.81F FOG     WCI  23
BROOKINGS      NOT AVBL
WATERTOWN      LGT SNOW  29  25  85 SE8       29.80S FOG     WCI  21
HURON          LGT SNOW  31  30  96 CALM      29.79S FOG
SISSETON         N/A     25  22  88 SE7       29.88R WCI  17
ABERDEEN       MIX PCPN  31  28  89 E15       29.80R WCI  20
MITCHELL       MIX PCPN  34  32  92 W5        29.80F
PIERRE         CLOUDY    37  30  75 NW24G32   29.81R
MOBRIDGE       CLOUDY    36  31  82 NW14      29.78R
RAPID CITY     MOCLDY    33  23  66 NW31G41   29.95R WCI  19
$$

  *****  SOME WEATHER IN NEARBY STATES *****

CITY           SKY/WX    TMP DP  RH WIND       PRES   REMARKS
GLASGOW MT     CLOUDY    22  16  78 N6        30.15R WCI  14
GREAT FALLS MT CLOUDY    30  25  81 S12       30.12S WCI  20
CHEYENNE WY    LGT SNOW  27  23  85 N22G35    30.00R VSB 1   WCI  13
SCOTTSBLUFF NE CLOUDY    34  32  92 NW12      30.04R
OMAHA NE       LGT RAIN  38  27  64 SE15      29.89F
DES MOINES IA  CLOUDY    30  14  51 S10       30.02F WCI  21
DAVENPORT IA   CLEAR     16  10  77 SE3       30.17R
CHICAGO IL     FAIR      19  15  84 S5        30.19R WCI  12
EAU CLAIRE WI  CLOUDY    23  14  68 S5        30.06S WCI  17
LA CROSSE WI   MOCLDY    19  14  81 SE3       30.12R
$$

  *****  SOME NATIONAL WEATHER *****

CITY           SKY/WX    TMP DP  RH WIND       PRES   REMARKS
LA GUARDIA NY  CLOUDY    51  29  42 W9        30.15R
RALEIGH NC     LGT RAIN  48  45  87 CALM      30.07F
ATLANTA GA     CLOUDY    52  33  48 SW3       30.05S
NEW ORLEANS LA PTCLDY    49  33  54 NW14G20   30.23R
OKLAHOMA CITY  MOCLDY    42  27  55 S8        30.03F
ALBUQUERQUE NM PTCLDY    41   6  23 NW9       30.29R
SALT LAKE CITY MOCLDY    45  30  55 SE9       30.30S
LOS ANGELES CA CLEAR     65  51  60 CALM      30.28S
BOISE ID       CLOUDY    50  41  71 NW7       30.27R
SEATTLE WA     CLOUDY    56  53  90 S21       30.16F
$$

*** WEATHER ACROSS MANITOBA...SASKATCHEWAN AND ONTARIO ***
                ***ONTARIO***

CITY           SKY/WX    TMP DP  RH WIND       PRES   REMARKS
GERALDTON      FLURRIES   5   0  78 NW6       30.03R WCI  -6
THUNDER BAY    CLOUDY    16  10  79 CALM      30.09R
SIOUX LOOKOUT  CLOUDY     7   1  78 N3        30.05R
TORONTO        CLOUDY    34  25  69 SW13      30.19R WCI  25
BIG TROUT LK   CLEAR    -20 -26  76 W7        30.09R WCI -37
PICKLE LAKE    NOT AVBL
DRYDEN         LGT SNOW   9   5  85 N6        30.03R WCI  -1
KENORA         NOT AVBL
$$
                *** MANITOBA***

CITY           SKY/WX    TMP DP  RH WIND       PRES   REMARKS
BRANDON        PTCLDY    -2  -6  84 NE9       30.20R WCI -18
DAUPHIN        MOCLDY    -9 -13  84 W5        30.29R WCI -21
ISLAND LAKE    CLEAR    -17 -26  63 NW7       30.18R WCI -33
PILOT MOUND      N/A      7   3  85 N12         N/A  WCI  -9
THE PAS        CLEAR    -11 -17  77 NW8       30.31R WCI -28
THOMPSON       CLEAR    -20 -27  69 NW6       30.21R WCI -36
WINNIPEG       CLEAR      0  -8  71 N12       30.22R WCI -18
LYNN LAKE      CLEAR    -22 -27  76 NW7       30.22R WCI -39
CHURCHILL      CRYSTALS -15 -22  70 NW20      30.12S DRFTSNOWWCI -41
GILLAM         CLEAR    -18 -26  69 W10       30.16R WCI -39
$$
                ***SASKATCHEWAN***

CITY           SKY/WX    TMP DP  RH WIND       PRES   REMARKS
ESTEVAN        FLURRIES  12   9  85 N2        30.16R
KINDERSLEY     FLURRIES  12   9  85 NE7       30.18R WCI   2
LLOYDMINSTER   NOT AVBL
PRINCE ALBERT  PTCLDY    -6  -9  84 CALM      30.30R
REGINA         SNOWSHWR   9   3  78 N6        30.20R WCI  -1
YORKTON        CLOUDY    -2  -8  78 N6        30.23R WCI -14



USA.gov is the U.S. government's official web portal to all federal, state and local government web resources and services.